KK7N Weather Reports


time (UTC)temp
F
wind
direction
speed
knots
gust
knots
rain 1hr
in
rain 24hr
in
rain mn
in
humidity
%
barometer
mb
20260906074600 57 0 0.0 1.7 0.00 0.00 0.00 85 1015.4
20260906073051 57 0 0.0 2.6 0.00 0.00 0.00 86 1015.5
20260906071557 57 0 0.0 0.0 0.00 0.00 0.00 85 1015.3
20260906070056 57 0 0.0 0.0 0.00 0.00 0.00 85 1015.3
20260906064550 57 0 0.0 0.0 0.00 0.00 0.00 85 1015.4
20260906063053 57 174 0.0 0.0 0.00 0.00 0.00 84 1015.3
20260906061557 58 0 0.0 2.6 0.00 0.00 0.00 83 1015.5
20260906060055 58 140 0.0 2.6 0.00 0.00 0.00 82 1015.6
20260906054556 58 0 0.9 2.6 0.00 0.00 0.00 82 1015.6
20260906053054 58 176 0.9 3.5 0.00 0.00 0.00 81 1015.5
20260906051602 58 176 0.9 2.6 0.00 0.00 0.00 80 1015.5
20260906050055 58 138 0.9 2.6 0.00 0.00 0.00 81 1015.7
20260906044550 59 0 0.0 1.7 0.00 0.00 0.00 80 1015.6
20260906043052 59 109 1.7 2.6 0.00 0.00 0.00 81 1015.9
20260906041556 60 0 0.0 3.5 0.00 0.00 0.00 80 1015.8
20260906040101 60 0 0.0 0.0 0.00 0.00 0.00 77 1015.8
20260906034554 60 0 0.0 0.0 0.00 0.00 0.00 76 1015.6
20260906033052 61 0 0.0 0.0 0.00 0.00 0.00 76 1015.4
20260906031553 62 0 0.0 0.9 0.00 0.00 0.00 72 1015.3
20260906030055 63 0 0.0 0.0 0.00 0.00 0.00 71 1015.1
20260906024635 64 0 0.0 0.0 0.00 0.00 0.00 66 1015.1
20260906023053 65 0 0.0 0.0 0.00 0.00 0.00 64 1015.1
20260906021555 66 0 0.0 0.0 0.00 0.00 0.00 62 1015.1
20260906020050 66 0 0.0 1.7 0.00 0.00 0.00 61 1015.3
20260906014602 68 0 0.0 3.5 0.00 0.00 0.00 58 1015.3
20260906013047 68 82 0.9 3.5 0.00 0.00 0.00 58 1015.2
20260906011558 69 0 0.9 3.5 0.00 0.00 0.00 56 1015.3
20260906010108 69 0 0.0 1.7 0.00 0.00 0.00 57 1015.3
20260906004553 69 92 1.7 6.1 0.00 0.00 0.00 54 1015.3
20260906003111 70 72 2.6 6.1 0.00 0.00 0.00 51 1015.3
20260906001556 71 113 0.9 3.5 0.00 0.00 0.00 46 1015.4
20260905234553 70 71 1.7 6.1 0.00 0.01 0.00 53 1015.3
20260905233043 73 286 2.6 7.0 0.00 0.01 0.00 49 1015.4
20260905231553 73 287 0.9 6.1 0.00 0.01 0.00 46 1015.5
20260905230049 73 343 2.6 8.7 0.00 0.01 0.00 46 1015.5
20260905224553 72 5 2.6 7.0 0.00 0.02 0.00 48 1015.6
20260905223053 72 278 1.7 5.2 0.00 0.02 0.00 51 1015.6
20260905221553 71 304 0.9 3.5 0.00 0.02 0.00 48 1015.7
20260905220056 70 140 0.9 4.3 0.00 0.02 0.00 48 1015.8
20260905214600 71 0 1.7 6.1 0.00 0.02 0.00 48 1015.9
20260905213054 71 272 0.9 4.3 0.00 0.02 0.00 49 1016.0
20260905211556 70 0 0.0 5.2 0.00 0.02 0.00 52 1015.9
20260905210052 71 217 2.6 7.0 0.00 0.02 0.00 52 1016.0
20260905204558 72 242 1.7 6.1 0.00 0.02 0.00 52 1016.3
20260905203057 68 172 0.9 6.1 0.00 0.02 0.00 58 1016.4
20260905201552 69 306 3.5 7.0 0.00 0.02 0.00 60 1016.5
20260905200100 67 314 1.7 5.2 0.00 0.02 0.00 63 1016.4
20260905194549 67 253 2.6 7.0 0.00 0.02 0.00 65 1016.5
20260905193107 65 255 1.7 6.1 0.00 0.02 0.00 68 1016.7
20260905191558 65 29 0.9 6.1 0.00 0.02 0.00 68 1016.9
20260905190100 64 334 0.9 7.0 0.00 0.02 0.00 67 1017.1
20260905184555 64 335 0.9 4.3 0.00 0.02 0.00 73 1017.2
20260905183058 64 278 2.6 7.0 0.00 0.02 0.00 74 1017.4
20260905181554 63 253 0.9 4.3 0.00 0.02 0.00 75 1017.6
20260905180108 63 0 3.5 5.2 0.00 0.02 0.00 74 1017.5
20260905174558 62 0 1.7 5.2 0.00 0.02 0.00 76 1017.5
20260905173052 61 74 0.9 2.6 0.00 0.02 0.00 87 1017.6
20260905171559 57 0 0.0 0.0 0.00 0.02 0.00 89 1017.7
20260905170058 56 0 0.0 0.0 0.00 0.02 0.00 90 1017.7
20260905164555 56 0 0.0 0.0 0.00 0.02 0.00 91 1017.7
20260905163101 55 0 0.0 0.0 0.00 0.02 0.00 91 1017.7
20260905161558 55 0 0.0 1.7 0.00 0.02 0.00 92 1017.7
20260905160058 54 0 0.0 0.0 0.00 0.02 0.00 92 1017.7
20260905154556 53 0 0.0 0.0 0.00 0.02 0.00 92 1017.8
20260905153058 53 0 0.0 0.0 0.00 0.02 0.00 93 1017.8
20260905151554 52 0 0.0 0.0 0.00 0.02 0.00 93 1017.8
20260905150058 52 0 0.0 2.6 0.00 0.02 0.00 93 1017.9
20260905144602 52 0 0.0 0.0 0.00 0.02 0.00 93 1017.7
20260905143056 51 0 0.0 0.0 0.00 0.02 0.00 93 1017.6
20260905141550 51 0 0.0 0.0 0.00 0.02 0.00 93 1017.6
20260905140100 51 0 0.0 0.0 0.00 0.02 0.00 92 1017.6
20260905134558 51 0 0.0 0.0 0.00 0.02 0.00 92 1017.4
20260905133052 52 0 0.0 0.0 0.00 0.02 0.00 91 1017.4
20260905131552 52 0 0.0 0.0 0.00 0.02 0.00 91 1017.3
20260905130053 52 0 0.0 0.0 0.00 0.02 0.00 91 1017.2
20260905124553 52 0 0.0 0.0 0.00 0.05 0.00 91 1017.2
20260905123052 52 0 0.0 0.0 0.00 0.05 0.00 91 1017.2
20260905121555 52 0 0.0 0.0 0.00 0.05 0.00 92 1017.2
20260905114552 53 0 0.0 2.6 0.00 0.07 0.00 92 1017.2
20260905113054 53 170 0.0 2.6 0.00 0.07 0.00 92 1017.1
20260905111645 53 0 0.0 1.7 0.00 0.07 0.00 92 1017.0
20260905110052 53 0 0.0 1.7 0.00 0.07 0.00 92 1017.0
20260905104547 53 0 0.0 0.9 0.00 0.07 0.00 92 1017.2
20260905103055 53 165 0.9 1.7 0.00 0.07 0.00 92 1017.2
20260905101553 53 0 0.0 0.9 0.00 0.07 0.00 92 1017.1
20260905100106 53 166 0.9 3.5 0.00 0.07 0.00 92 1017.0
20260905094553 53 0 0.0 0.0 0.00 0.07 0.00 91 1017.0
20260905093059 53 0 0.0 0.0 0.00 0.07 0.00 91 1017.0
20260905091600 53 0 0.0 0.0 0.00 0.07 0.00 91 1016.9
20260905090047 53 0 0.0 0.9 0.00 0.07 0.00 91 1016.8
20260905084553 54 172 0.9 1.7 0.00 0.07 0.00 91 1016.8
20260905083051 54 0 0.0 1.7 0.00 0.07 0.00 90 1016.8
20260905081559 54 0 0.0 0.9 0.00 0.07 0.00 90 1016.6
20260905080057 54 0 0.0 0.9 0.00 0.07 0.00 91 1016.6